Regional Weather Roundup
Issued by NWS Jackson, KY

Home | Current Version | Previous Version | Graphics & Text | Print | Product List | Glossary On
Versions: 1 2 3 4 5 6 7 8 9 10 11 12 13 14 15 16 17 18 19 20 21 22 23 24 25 26 27
000
ASUS43 KJKL 242210
RWRJKL

EAST KENTUCKY HOURLY WEATHER ROUNDUP
NATIONAL WEATHER SERVICE JACKSON KY
600 PM EDT SUN JUL 24 2016

NOTE: "FAIR" INDICATES FEW OR NO CLOUDS BELOW 12,000 FEET WITH
NO SIGNIFICANT WEATHER AND/OR OBSTRUCTIONS TO VISIBILITY.

* THESE REPORTS ARE NOT UNDER NWS QUALITY CONTROL AND MAY NOT
  REPORT WEATHER SUCH AS PRECIPITATION AND FOG.

KYZ079-080-083-085-087-088-110-112-115-119-120-242300
...EASTERN KENTUCKY...

CITY           SKY/WX    TMP DP  RH WIND       PRES   REMARKS
JACKSON        MOSUNNY   90  74  59 CALM      30.04S HX  99
LONDON         SUNNY     91  68  46 W6        30.03S HX  95
SOMERSET*      MOSUNNY   88  70  55 W5        30.02F HX  92
MONTICELLO*    SUNNY    N/A N/A N/A NW3       30.03F
WILLIAMSBURG*  PTCLDY    90  73  58 CALM      30.02F HX  98
MIDDLESBORO*   SUNNY     92  72  51 NW3       30.02S HX 100
HARLAN APT*      N/A     90  70  51 CALM      30.05S HX  95
PIKE CO APT*     N/A     90  73  57 CALM      30.04S HX  97
MOREHEAD APT*  CLEAR     91  73  55 CALM      30.03S HX 100
ASHLAND*       SUNNY     93  75  55 SW3       29.96S HX 104
$$

KYZ035-036-041-042-044-050-067-078-099-242300
...CENTRAL KENTUCKY...

CITY           SKY/WX    TMP DP  RH WIND       PRES   REMARKS
MT STERLING*   SUNNY     90  75  62 SW5       30.02S HX 100
FLEMING/MASON* CLOUDY    91  76  60 SW6       30.01S HX 103
DANVILLE*      MOSUNNY   91  73  55 W5        30.03S HX 100
RICHMOND*      MOSUNNY   91  72  52 SW5       30.02S HX  98
LEXINGTON      MOSUNNY   92  72  51 W7        30.01S HX  99
FRANKFORT      MOSUNNY   92  73  53 SW12      29.99S HX 100
LOUISVILLE     PTSUNNY   94  71  47 SW6       29.97S HX 101
LEBANON*         N/A     91  73  55 W3        30.01S HX 100
GLASGOW*       SUNNY     91  73  54 SW3       29.99F HX  99
BOWLING GREEN  SUNNY     92  73  53 W3        29.97F HX 100
$$

KYZ091>093-OHZ055-061-077-WVZ005-015-034-035-042-242300
...SOUTHERN OHIO/WEST VIRGINIA...

CITY           SKY/WX    TMP DP  RH WIND       PRES   REMARKS
COVINGTON      MOSUNNY   93  73  52 SW8       29.98F HX 102
COLUMBUS       PTSUNNY   81  72  74 N6        29.97F
DAYTON         CLOUDY    90  71  53 W14       29.98F HX  96
WILMINGTON     LGT RAIN  87  77  72 CALM      29.99F HX  99
HUNTINGTON       N/A     94  70  45 CALM      29.99S HX 100
CHARLESTON       N/A     93  71  48 VRB5      30.00S HX 100
PINEVILLE*       N/A     91  67  46 MISG      30.10S HX  94
BECKLEY        CLOUDY    90  66  45 VRB5      30.10S HX  92
BLUEFIELD        N/A     88  61  40 W5        30.13S
LOGAN CO APT*    N/A     90  73  58 W5        30.04S HX  98
$$

VAZ002-007-008-TNZ017-027-036-066-071-242300
...SOUTHWEST VIRGINIA/EAST TENNESSEE...

CITY           SKY/WX    TMP DP  RH WIND       PRES   REMARKS
WISE*          PTSUNNY   88  61  40 CALM      30.14S
JONESVILLE*      N/A     93  66  40 CALM      30.06S HX  96
ABINGDON*        N/A     92  65  41 N8        30.08R HX  94
BRISTOL        PTSUNNY   95  64  35 CALM      30.03R HX  97
MORRISTOWN*    CLEAR     95  64  36 VRB5      30.01F HX  97
SEVIERVILLE*     N/A     90  70  51 VRB5      30.01R HX  95
KNOXVILLE      PTSUNNY   93  68  43 W8        30.00  HX  97
OAK RIDGE      SUNNY     94  66  39 S3        30.02S HX  97
CROSSVILLE     MOSUNNY   82  73  74 CALM      30.08F
NASHVILLE      PTSUNNY   96  68  39 NE3       29.97F HX 101
$$

...KEY TO REMARKS...
VSB - VISIBILITY IN MILES
WCI - WIND CHILL INDEX
HX  - HEAT INDEX

$$




USA.gov is the U.S. government's official web portal to all federal, state and local government web resources and services.